Location: Lombard
(41.8800°N, 88.0080°W)
Time: 00:31:59
(UTC-05:00)

Tiros 1 - Pass Details

Date: 31 January 2023
Orbit: 628 x 662 km, 48.4° (Epoch: 20 March)

Event Time Altitude Azimuth Distance (km) Brightness Sun altitude
Rises 03:12:48 0° 270° (W) 2,917 - -43.3°
Reaches altitude 10° 03:15:13 10° 277° (W) 2,014 - -42.9°
Maximum altitude 03:19:37 42° 349° (NNW) 919 - -42.1°
Drops below altitude 10° 03:24:04 10° 60° (ENE) 2,037 - -41.3°
Exits shadow 03:24:14 - 61° (ENE) 2,095 10.4 -41.2°
Sets 03:26:32 0° 68° (ENE) 2,954 11.4 -40.8°
